Location: Antichan
(42.9728°N, 0.6667°E)
Time: 17:36:49
(UTC+00:00)

Cosmos 1238 Rocket - Pass Details

Date: 15 August 2020
Orbit: 375 x 1027 km, 82.9° (Epoch: 18 September)

Event Time Altitude Azimuth Distance (km) Brightness Sun altitude
Exits shadow 20:31:04 37° 161° (SSE) 605 2.6 -15.7°
Maximum altitude 20:32:00 62° 96° (E) 428 2.0 -15.8°
Drops below altitude 10° 20:34:59 10° 14° (NNE) 1,421 5.2 -16.2°
Sets 20:37:02 0° 11° (N) 2,322 6.4 -16.5°
